ARIANE 3 DEB, 20674

Orbit data source: Space-Track

ARIANE 3 DEB, 20674 is space debris in HEO originally from a launch on Sat, 04 Aug 1984 UTC launched from the French Guiana (FRGUI). Debris objects in space refer to the collection of defunct objects orbiting the Earth. Examples of debris include non-operational satellites, rocket bodies, and fragments generated from explosions, collisions, or faulty payload assembly.

Loading next visibility...
Identifier
20674, 1984-081E
Orbit
HEO
Country
Flag of FRFR
Related business
Manufacturer
Unknown
Mission
Spacecraft
Bus & Motor
Unknown
Mass
Unknown
Launch date (UTC)
1984-08-04 (42 years ago)
Launch vehicle
Unknown
Launch site
French Guiana (FRGUI)
Object type
Payload
Rocket body
Debris
Shape & HBR
Unknown shape, 1.1 m
Radar Cross Section
Large (>1 m²)

Expand to show TLE details & history
Last TLE update: 2 days ago

TLE from 2 days ago
0 ARIANE 3 DEB
1 20674U 84081E   26171.08101471 -.00000213  00000-0 -14158-2 0  9998
2 20674   7.4755  23.8187 6983305 245.5404 351.8897  2.40795543297576
Epoch: 2026-06-20T01:56Z
TLE epoch observation values (Epoch: 2026-06-20T01:56:39.670Z)
Latitude
-1.27119°
Longitude
-83.94041°
Altitude
2,245.892 km
Speed
8.688 km/s
True Right ascension
14h 14m 06s
True Declination
-1° 15' 54"
Sunlit
Object was in daylight at epoch
Visualization orbit readout
Latitude
Unknown
Longitude
Unknown
Altitude
Unknown
Speed
Unknown
Apparent Right ascension
Unknown
Apparent Declination
Unknown
Sunlit
N/A
Visualization observer readout
Local Sidereal Time
00:51:21
Azimuth
Unknown
Elevation
Unknown
Doppler factor
Unknown
Orbital elements
Apogee altitude
33,562.713 km
Perigee altitude
716.44 km
Semi-major axis
23,517.714 km
Eccentricity
0.69833
Inclination
7.4755°
RAAN
23.8187°
Arg. of periapsis
245.5404°
True anomaly
304.40432°
Mean anomaly
351.8897°
Eccentric anomaly
334.94596°
Mean motion
0.6018 °/min
Orbital period
598.21 mins
BSTAR
-0.0014158
Loading maneuver chart data...
Computing Atmospheric mass density...
Loading historical data...
Loading historical data...
Loading historical data...
Loading historical data...
Loading historical data...
Loading historical data...
Loading historical data...

Documentation

Showing up to 5 results
|